Year,Month,Day,Hour,Minute,Value (Times are PST for temperature in C)
2013,09,19,00,00,13.40
2013,09,19,00,01,13.40
2013,09,19,00,02,13.40
2013,09,19,00,03,13.40
2013,09,19,00,04,13.40
2013,09,19,00,05,13.40
2013,09,19,00,06,13.40
2013,09,19,00,07,13.50
2013,09,19,00,08,13.50
2013,09,19,00,09,13.50
2013,09,19,00,10,13.50
2013,09,19,00,11,13.50
2013,09,19,00,12,13.50
2013,09,19,00,13,13.50
2013,09,19,00,14,13.50
2013,09,19,00,15,13.50
2013,09,19,00,16,13.50
2013,09,19,00,17,13.50
2013,09,19,00,18,13.50
2013,09,19,00,19,13.50
2013,09,19,00,20,13.50
2013,09,19,00,21,13.50
2013,09,19,00,22,13.50
2013,09,19,00,23,13.50
2013,09,19,00,24,13.50
2013,09,19,00,25,13.50
2013,09,19,00,26,13.50
2013,09,19,00,27,13.50
2013,09,19,00,28,13.50
2013,09,19,00,29,13.50
2013,09,19,00,30,13.50
2013,09,19,00,31,13.50
2013,09,19,00,32,13.50
2013,09,19,00,33,13.50
2013,09,19,00,34,13.50
2013,09,19,00,35,13.40
2013,09,19,00,36,13.40
2013,09,19,00,37,13.40
2013,09,19,00,38,13.40
2013,09,19,00,39,13.40
2013,09,19,00,40,13.40
2013,09,19,00,41,13.40
2013,09,19,00,42,13.40
2013,09,19,00,43,13.40
2013,09,19,00,44,13.40
2013,09,19,00,45,13.40
2013,09,19,00,46,13.40
2013,09,19,00,47,13.40
2013,09,19,00,48,13.40
2013,09,19,00,49,13.40
2013,09,19,00,50,13.40
2013,09,19,00,51,13.40
2013,09,19,00,52,13.40
2013,09,19,00,53,13.30
2013,09,19,00,54,13.30
2013,09,19,00,55,13.30
2013,09,19,00,56,13.30
2013,09,19,00,57,13.30
2013,09,19,00,58,13.30
2013,09,19,00,59,13.30
2013,09,19,01,00,13.30
2013,09,19,01,01,13.30
2013,09,19,01,02,13.30
2013,09,19,01,03,13.30
2013,09,19,01,04,13.30
2013,09,19,01,05,13.30
2013,09,19,01,06,13.20
2013,09,19,01,07,13.20
2013,09,19,01,08,13.20
2013,09,19,01,09,13.20
2013,09,19,01,10,13.20
2013,09,19,01,11,13.20
2013,09,19,01,12,13.20
2013,09,19,01,13,13.20
2013,09,19,01,14,13.20
2013,09,19,01,15,13.20
2013,09,19,01,16,13.20
2013,09,19,01,17,13.20
2013,09,19,01,18,13.20
2013,09,19,01,19,13.20
2013,09,19,01,20,13.20
2013,09,19,01,21,13.20
2013,09,19,01,22,13.20
2013,09,19,01,23,13.20
2013,09,19,01,24,13.20
2013,09,19,01,25,13.20
2013,09,19,01,26,13.20
2013,09,19,01,27,13.20
2013,09,19,01,28,13.20
2013,09,19,01,29,13.20
2013,09,19,01,30,13.10
2013,09,19,01,31,13.10
2013,09,19,01,32,13.10
2013,09,19,01,33,13.10
2013,09,19,01,34,13.10
2013,09,19,01,35,13.10
2013,09,19,01,36,13.10
2013,09,19,01,37,13.10
2013,09,19,01,38,13.10
2013,09,19,01,39,13.10
2013,09,19,01,40,13.10
2013,09,19,01,41,13.10
2013,09,19,01,42,13.10
2013,09,19,01,43,13.10
2013,09,19,01,44,13.10
2013,09,19,01,45,13.10
2013,09,19,01,46,13.10
2013,09,19,01,47,13.00
2013,09,19,01,48,13.00
2013,09,19,01,49,13.00
2013,09,19,01,50,13.00
2013,09,19,01,51,13.00
2013,09,19,01,52,13.00
2013,09,19,01,53,13.00
2013,09,19,01,54,13.00
2013,09,19,01,55,13.00
2013,09,19,01,56,12.90
2013,09,19,01,57,13.00
2013,09,19,01,58,12.90
2013,09,19,01,59,12.90
2013,09,19,02,00,12.90
2013,09,19,02,01,12.90
2013,09,19,02,02,12.90
2013,09,19,02,03,12.90
2013,09,19,02,04,12.90
2013,09,19,02,05,12.90
2013,09,19,02,06,12.90
2013,09,19,02,07,12.90
2013,09,19,02,08,12.90
2013,09,19,02,09,12.90
2013,09,19,02,10,12.90
2013,09,19,02,11,12.90
2013,09,19,02,12,12.90
2013,09,19,02,13,12.90
2013,09,19,02,14,12.90
2013,09,19,02,15,12.90
2013,09,19,02,16,12.80
2013,09,19,02,17,12.80
2013,09,19,02,18,12.80
2013,09,19,02,19,12.80
2013,09,19,02,20,12.80
2013,09,19,02,21,12.80
2013,09,19,02,22,12.80
2013,09,19,02,23,12.80
2013,09,19,02,24,12.80
2013,09,19,02,25,12.80
2013,09,19,02,26,12.80
2013,09,19,02,27,12.80
2013,09,19,02,28,12.80
2013,09,19,02,29,12.80
2013,09,19,02,30,12.80
2013,09,19,02,31,12.80
2013,09,19,02,32,12.80
2013,09,19,02,33,12.80
2013,09,19,02,34,12.80
2013,09,19,02,35,12.80
2013,09,19,02,36,12.80
2013,09,19,02,37,12.80
2013,09,19,02,38,12.70
2013,09,19,02,39,12.70
2013,09,19,02,40,12.70
2013,09,19,02,41,12.70
2013,09,19,02,42,12.70
2013,09,19,02,43,12.70
2013,09,19,02,44,12.70
2013,09,19,02,45,12.70
2013,09,19,02,46,12.70
2013,09,19,02,47,12.70
2013,09,19,02,48,12.70
2013,09,19,02,49,12.70
2013,09,19,02,50,12.70
2013,09,19,02,51,12.70
2013,09,19,02,52,12.70
2013,09,19,02,53,12.70
2013,09,19,02,54,12.70
2013,09,19,02,55,12.70
2013,09,19,02,56,12.70
2013,09,19,02,57,12.70
2013,09,19,02,58,12.70
2013,09,19,02,59,12.70
2013,09,19,03,00,12.70
2013,09,19,03,01,12.70
2013,09,19,03,02,12.70
2013,09,19,03,03,12.70
2013,09,19,03,04,12.70
2013,09,19,03,05,12.70
2013,09,19,03,06,12.70
2013,09,19,03,07,12.70
2013,09,19,03,08,12.70
2013,09,19,03,09,12.70
2013,09,19,03,10,12.70
2013,09,19,03,11,12.70
2013,09,19,03,12,12.70
2013,09,19,03,13,12.70
2013,09,19,03,14,12.70
2013,09,19,03,15,12.70
2013,09,19,03,16,12.70
2013,09,19,03,17,12.70
2013,09,19,03,18,12.70
2013,09,19,03,19,12.70
2013,09,19,03,20,12.70
2013,09,19,03,21,12.70
2013,09,19,03,22,12.70
2013,09,19,03,23,12.70
2013,09,19,03,24,12.70
2013,09,19,03,25,12.70
2013,09,19,03,26,12.70
2013,09,19,03,27,12.70
2013,09,19,03,28,12.70
2013,09,19,03,29,12.70
2013,09,19,03,30,12.70
2013,09,19,03,31,12.70
2013,09,19,03,32,12.70
2013,09,19,03,33,12.70
2013,09,19,03,34,12.70
2013,09,19,03,35,12.70
2013,09,19,03,36,12.70
2013,09,19,03,37,12.70
2013,09,19,03,38,12.70
2013,09,19,03,39,12.70
2013,09,19,03,40,12.70
2013,09,19,03,41,12.70
2013,09,19,03,42,12.70
2013,09,19,03,43,12.70
2013,09,19,03,44,12.60
2013,09,19,03,45,12.60
2013,09,19,03,46,12.60
2013,09,19,03,47,12.60
2013,09,19,03,48,12.60
2013,09,19,03,49,12.60
2013,09,19,03,50,12.60
2013,09,19,03,51,12.60
2013,09,19,03,52,12.60
2013,09,19,03,53,12.60
2013,09,19,03,54,12.60
2013,09,19,03,55,12.60
2013,09,19,03,56,12.60
2013,09,19,03,57,12.60
2013,09,19,03,58,12.60
2013,09,19,03,59,12.60
2013,09,19,04,00,12.60
2013,09,19,04,01,12.60
2013,09,19,04,02,12.60
2013,09,19,04,03,12.60
2013,09,19,04,04,12.60
2013,09,19,04,05,12.60
2013,09,19,04,06,12.60
2013,09,19,04,07,12.60
2013,09,19,04,08,12.60
2013,09,19,04,09,12.60
2013,09,19,04,10,12.60
2013,09,19,04,11,12.60
2013,09,19,04,12,12.60
2013,09,19,04,13,12.60
2013,09,19,04,14,12.60
2013,09,19,04,15,12.60
2013,09,19,04,16,12.60
2013,09,19,04,17,12.60
2013,09,19,04,18,12.60
2013,09,19,04,19,12.60
2013,09,19,04,20,12.60
2013,09,19,04,21,12.60
2013,09,19,04,22,12.60
2013,09,19,04,23,12.60
2013,09,19,04,24,12.60
2013,09,19,04,25,12.60
2013,09,19,04,26,12.60
2013,09,19,04,27,12.60
2013,09,19,04,28,12.60
2013,09,19,04,29,12.60
2013,09,19,04,30,12.60
2013,09,19,04,31,12.60
2013,09,19,04,32,12.60
2013,09,19,04,33,12.60
2013,09,19,04,34,12.60
2013,09,19,04,35,12.60
2013,09,19,04,36,12.60
2013,09,19,04,37,12.60
2013,09,19,04,38,12.60
2013,09,19,04,39,12.60
2013,09,19,04,40,12.60
2013,09,19,04,41,12.50
2013,09,19,04,42,12.50
2013,09,19,04,43,12.50
2013,09,19,04,44,12.50
2013,09,19,04,45,12.50
2013,09,19,04,46,12.50
2013,09,19,04,47,12.50
2013,09,19,04,48,12.50
2013,09,19,04,49,12.40
2013,09,19,04,50,12.40
2013,09,19,04,51,12.40
2013,09,19,04,52,12.40
2013,09,19,04,53,12.40
2013,09,19,04,54,12.40
2013,09,19,04,55,12.40
2013,09,19,04,56,12.40
2013,09,19,04,57,12.40
2013,09,19,04,58,12.40
2013,09,19,04,59,12.40
2013,09,19,05,00,12.30
2013,09,19,05,01,12.30
2013,09,19,05,02,12.30
2013,09,19,05,03,12.30
2013,09,19,05,04,12.30
2013,09,19,05,05,12.30
2013,09,19,05,06,12.30
2013,09,19,05,07,12.30
2013,09,19,05,08,12.30
2013,09,19,05,09,12.30
2013,09,19,05,10,12.30
2013,09,19,05,11,12.30
2013,09,19,05,12,12.30
2013,09,19,05,13,12.30
2013,09,19,05,14,12.30
2013,09,19,05,15,12.30
2013,09,19,05,16,12.30
2013,09,19,05,17,12.30
2013,09,19,05,18,12.30
2013,09,19,05,19,12.30
2013,09,19,05,20,12.30
2013,09,19,05,21,12.30
2013,09,19,05,22,12.30
2013,09,19,05,23,12.30
2013,09,19,05,24,12.30
2013,09,19,05,25,12.30
2013,09,19,05,26,12.30
2013,09,19,05,27,12.20
2013,09,19,05,28,12.20
2013,09,19,05,29,12.20
2013,09,19,05,30,12.20
2013,09,19,05,31,12.20
2013,09,19,05,32,12.20
2013,09,19,05,33,12.20
2013,09,19,05,34,12.20
2013,09,19,05,35,12.20
2013,09,19,05,36,12.20
2013,09,19,05,37,12.20
2013,09,19,05,38,12.20
2013,09,19,05,39,12.20
2013,09,19,05,40,12.20
2013,09,19,05,41,12.20
2013,09,19,05,42,12.10
2013,09,19,05,43,12.10
2013,09,19,05,44,12.10
2013,09,19,05,45,12.10
2013,09,19,05,46,12.10
2013,09,19,05,47,12.10
2013,09,19,05,48,12.10
2013,09,19,05,49,12.10
2013,09,19,05,50,12.10
2013,09,19,05,51,12.10
2013,09,19,05,52,12.10
2013,09,19,05,53,12.10
2013,09,19,05,54,12.10
2013,09,19,05,55,12.10
2013,09,19,05,56,12.10
2013,09,19,05,57,12.10
2013,09,19,05,58,12.10
2013,09,19,05,59,12.10
2013,09,19,06,00,12.10
2013,09,19,06,01,12.10
2013,09,19,06,02,12.10
2013,09,19,06,03,12.10
2013,09,19,06,04,12.10
2013,09,19,06,05,12.00
2013,09,19,06,06,12.00
2013,09,19,06,07,12.00
2013,09,19,06,08,12.00
2013,09,19,06,09,12.00
2013,09,19,06,10,12.00
2013,09,19,06,11,12.00
2013,09,19,06,12,12.00
2013,09,19,06,13,12.00
2013,09,19,06,14,12.00
2013,09,19,06,15,12.00
2013,09,19,06,16,12.00
2013,09,19,06,17,12.00
2013,09,19,06,18,12.00
2013,09,19,06,19,12.00
2013,09,19,06,20,12.00
2013,09,19,06,21,12.00
2013,09,19,06,22,11.90
2013,09,19,06,23,11.90
2013,09,19,06,24,11.90
2013,09,19,06,25,11.90
2013,09,19,06,26,12.00
2013,09,19,06,27,12.00
2013,09,19,06,28,11.90
2013,09,19,06,29,11.90
2013,09,19,06,30,12.00
2013,09,19,06,31,11.90
2013,09,19,06,32,11.90
2013,09,19,06,33,11.90
2013,09,19,06,34,11.90
2013,09,19,06,35,11.90
2013,09,19,06,36,11.90
2013,09,19,06,37,11.90
2013,09,19,06,38,11.90
2013,09,19,06,39,11.90
2013,09,19,06,40,11.90
2013,09,19,06,41,11.90
2013,09,19,06,42,11.90
2013,09,19,06,43,11.90
2013,09,19,06,44,11.90
2013,09,19,06,45,11.90
2013,09,19,06,46,11.80
2013,09,19,06,47,11.80
2013,09,19,06,48,11.80
2013,09,19,06,49,11.80
2013,09,19,06,50,11.80
2013,09,19,06,51,11.80
2013,09,19,06,52,11.80
2013,09,19,06,53,11.80
2013,09,19,06,54,11.80
2013,09,19,06,55,11.80
2013,09,19,06,56,11.80
2013,09,19,06,57,11.80
2013,09,19,06,58,11.80
2013,09,19,06,59,11.80
2013,09,19,07,00,11.80
2013,09,19,07,01,11.80
2013,09,19,07,02,11.80
2013,09,19,07,03,11.80
2013,09,19,07,04,11.70
2013,09,19,07,05,11.70
2013,09,19,07,06,11.70
2013,09,19,07,07,11.70
2013,09,19,07,08,11.70
2013,09,19,07,09,11.70
2013,09,19,07,10,11.70
2013,09,19,07,11,11.70
2013,09,19,07,12,11.70
2013,09,19,07,13,11.70
2013,09,19,07,14,11.60
2013,09,19,07,15,11.60
2013,09,19,07,16,11.60
2013,09,19,07,17,11.60
2013,09,19,07,18,11.60
2013,09,19,07,19,11.60
2013,09,19,07,20,11.60
2013,09,19,07,21,11.60
2013,09,19,07,22,11.60
2013,09,19,07,23,11.60
2013,09,19,07,24,11.60
2013,09,19,07,25,11.50
2013,09,19,07,26,11.50
2013,09,19,07,27,11.50
2013,09,19,07,28,11.50
2013,09,19,07,29,11.50
2013,09,19,07,30,11.50
2013,09,19,07,31,11.50
2013,09,19,07,32,11.50
2013,09,19,07,33,11.50
2013,09,19,07,34,11.50
2013,09,19,07,35,11.50
2013,09,19,07,36,11.50
2013,09,19,07,37,11.50
2013,09,19,07,38,11.50
2013,09,19,07,39,11.50
2013,09,19,07,40,11.50
2013,09,19,07,41,11.50
2013,09,19,07,42,11.50
2013,09,19,07,43,11.50
2013,09,19,07,44,11.50
2013,09,19,07,45,11.50
2013,09,19,07,46,11.50
2013,09,19,07,47,11.50
2013,09,19,07,48,11.50
2013,09,19,07,49,11.50
2013,09,19,07,50,11.50
2013,09,19,07,51,11.50
2013,09,19,07,52,11.60
2013,09,19,07,53,11.60
2013,09,19,07,54,11.60
2013,09,19,07,55,11.60
2013,09,19,07,56,11.60
2013,09,19,07,57,11.60
2013,09,19,07,58,11.60
2013,09,19,07,59,11.60
2013,09,19,08,00,11.60
2013,09,19,08,01,11.60
2013,09,19,08,02,11.60
2013,09,19,08,03,11.60
2013,09,19,08,04,11.60
2013,09,19,08,05,11.70
2013,09,19,08,06,11.70
2013,09,19,08,07,11.70
2013,09,19,08,08,11.70
2013,09,19,08,09,11.70
2013,09,19,08,10,11.80
2013,09,19,08,11,11.80
2013,09,19,08,12,11.80
2013,09,19,08,13,11.80
2013,09,19,08,14,11.80
2013,09,19,08,15,11.90
2013,09,19,08,16,11.90
2013,09,19,08,17,11.90
2013,09,19,08,18,12.00
2013,09,19,08,19,12.00
2013,09,19,08,20,12.00
2013,09,19,08,21,12.10
2013,09,19,08,22,12.10
2013,09,19,08,23,12.10
2013,09,19,08,24,12.20
2013,09,19,08,25,12.20
2013,09,19,08,26,12.20
2013,09,19,08,27,12.20
2013,09,19,08,28,12.30
2013,09,19,08,29,12.30
2013,09,19,08,30,12.30
2013,09,19,08,31,12.30
2013,09,19,08,32,12.40
2013,09,19,08,33,12.40
2013,09,19,08,34,12.50
2013,09,19,08,35,12.60
2013,09,19,08,36,12.60
2013,09,19,08,37,12.60
2013,09,19,08,38,12.70
2013,09,19,08,39,12.70
2013,09,19,08,40,12.70
2013,09,19,08,41,12.70
2013,09,19,08,42,12.80
2013,09,19,08,43,12.80
2013,09,19,08,44,12.80
2013,09,19,08,45,12.80
2013,09,19,08,46,12.80
2013,09,19,08,47,12.80
2013,09,19,08,48,12.80
2013,09,19,08,49,12.80
2013,09,19,08,50,12.80
2013,09,19,08,51,12.80
2013,09,19,08,52,12.80
2013,09,19,08,53,12.80
2013,09,19,08,54,12.80
2013,09,19,08,55,12.80
2013,09,19,08,56,12.80
2013,09,19,08,57,12.80
2013,09,19,08,58,12.80
2013,09,19,08,59,12.80
2013,09,19,09,00,12.90
2013,09,19,09,01,12.90
2013,09,19,09,02,12.90
2013,09,19,09,03,12.90
2013,09,19,09,04,13.00
2013,09,19,09,05,13.00
2013,09,19,09,06,13.10
2013,09,19,09,07,13.10
2013,09,19,09,08,13.10
2013,09,19,09,09,13.10
2013,09,19,09,10,13.10
2013,09,19,09,11,13.10
2013,09,19,09,12,13.10
2013,09,19,09,13,13.20
2013,09,19,09,14,13.20
2013,09,19,09,15,13.20
2013,09,19,09,16,13.20
2013,09,19,09,17,13.30
2013,09,19,09,18,13.30
2013,09,19,09,19,13.30
2013,09,19,09,20,13.30
2013,09,19,09,21,13.30
2013,09,19,09,22,13.40
2013,09,19,09,23,13.40
2013,09,19,09,24,13.40
2013,09,19,09,25,13.40
2013,09,19,09,26,13.40
2013,09,19,09,27,13.50
2013,09,19,09,28,13.50
2013,09,19,09,29,13.50
2013,09,19,09,30,13.50
2013,09,19,09,31,13.50
2013,09,19,09,32,13.60
2013,09,19,09,33,13.60
2013,09,19,09,34,13.60
2013,09,19,09,35,13.60
2013,09,19,09,36,13.60
2013,09,19,09,37,13.60
2013,09,19,09,38,13.60
2013,09,19,09,39,13.70
2013,09,19,09,40,13.70
2013,09,19,09,41,13.70
2013,09,19,09,42,13.80
2013,09,19,09,43,13.80
2013,09,19,09,44,13.90
2013,09,19,09,45,13.90
2013,09,19,09,46,14.00
2013,09,19,09,47,14.00
2013,09,19,09,48,14.10
2013,09,19,09,49,14.10
2013,09,19,09,50,14.20
2013,09,19,09,51,14.20
2013,09,19,09,52,14.20
2013,09,19,09,53,14.20
2013,09,19,09,54,14.30
2013,09,19,09,55,14.30
2013,09,19,09,56,14.30
2013,09,19,09,57,14.30
2013,09,19,09,58,14.30
2013,09,19,09,59,14.40
2013,09,19,10,00,14.40
2013,09,19,10,01,14.40
2013,09,19,10,02,14.50
2013,09,19,10,03,14.50
2013,09,19,10,04,14.60
2013,09,19,10,05,14.60
2013,09,19,10,06,14.60
2013,09,19,10,07,14.60
2013,09,19,10,08,14.60
2013,09,19,10,09,14.70
2013,09,19,10,10,14.70
2013,09,19,10,11,14.70
2013,09,19,10,12,14.70
2013,09,19,10,13,14.70
2013,09,19,10,14,14.70
2013,09,19,10,15,14.70
2013,09,19,10,16,14.80
2013,09,19,10,17,14.80
2013,09,19,10,18,14.90
2013,09,19,10,19,15.00
2013,09,19,10,20,15.10
2013,09,19,10,21,15.20
2013,09,19,10,22,15.30
2013,09,19,10,23,15.40
2013,09,19,10,24,15.50
2013,09,19,10,25,15.60
2013,09,19,10,26,15.60
2013,09,19,10,27,15.70
2013,09,19,10,28,15.70
2013,09,19,10,29,15.70
2013,09,19,10,30,15.80
2013,09,19,10,31,15.80
2013,09,19,10,32,15.80
2013,09,19,10,33,15.80
2013,09,19,10,34,15.80
2013,09,19,10,35,15.80
2013,09,19,10,36,15.80
2013,09,19,10,37,15.80
2013,09,19,10,38,15.80
2013,09,19,10,39,15.80
2013,09,19,10,40,15.80
2013,09,19,10,41,15.80
2013,09,19,10,42,15.90
2013,09,19,10,43,15.90
2013,09,19,10,44,15.90
2013,09,19,10,45,15.90
2013,09,19,10,46,15.90
2013,09,19,10,47,15.90
2013,09,19,10,48,15.90
2013,09,19,10,49,15.90
2013,09,19,10,50,15.90
2013,09,19,10,51,16.00
2013,09,19,10,52,16.00
2013,09,19,10,53,16.10
2013,09,19,10,54,16.10
2013,09,19,10,55,16.10
2013,09,19,10,56,16.10
2013,09,19,10,57,16.10
2013,09,19,10,58,16.00
2013,09,19,10,59,16.00
2013,09,19,11,00,16.10
2013,09,19,11,01,16.10
2013,09,19,11,02,16.10
2013,09,19,11,03,16.20
2013,09,19,11,04,16.20
2013,09,19,11,05,16.30
2013,09,19,11,06,16.40
2013,09,19,11,07,16.40
2013,09,19,11,08,16.50
2013,09,19,11,09,16.60
2013,09,19,11,10,16.70
2013,09,19,11,11,16.80
2013,09,19,11,12,16.90
2013,09,19,11,13,17.00
2013,09,19,11,14,17.00
2013,09,19,11,15,17.10
2013,09,19,11,16,17.10
2013,09,19,11,17,17.10
2013,09,19,11,18,17.20
2013,09,19,11,19,17.30
2013,09,19,11,20,17.30
2013,09,19,11,21,17.30
2013,09,19,11,22,17.40
2013,09,19,11,23,17.50
2013,09,19,11,24,17.50
2013,09,19,11,25,17.50
2013,09,19,11,26,17.50
2013,09,19,11,27,17.50
2013,09,19,11,28,17.40
2013,09,19,11,29,17.30
2013,09,19,11,30,17.30
2013,09,19,11,31,17.30
2013,09,19,11,32,17.30
2013,09,19,11,33,17.40
2013,09,19,11,34,17.30
2013,09,19,11,35,17.30
2013,09,19,11,36,17.30
2013,09,19,11,37,17.40
2013,09,19,11,38,17.40
2013,09,19,11,39,17.40
2013,09,19,11,40,17.40
2013,09,19,11,41,17.40
2013,09,19,11,42,17.40
2013,09,19,11,43,17.40
2013,09,19,11,44,17.40
2013,09,19,11,45,17.40
2013,09,19,11,46,17.40
2013,09,19,11,47,17.50
2013,09,19,11,48,17.50
2013,09,19,11,49,17.50
2013,09,19,11,50,17.50
2013,09,19,11,51,17.50
2013,09,19,11,52,17.50
2013,09,19,11,53,17.50
2013,09,19,11,54,17.50
2013,09,19,11,55,17.50
2013,09,19,11,56,17.50
2013,09,19,11,57,17.50
2013,09,19,11,58,17.60
2013,09,19,11,59,17.60
2013,09,19,12,00,17.60
2013,09,19,12,01,17.60
2013,09,19,12,02,17.60
2013,09,19,12,03,17.70
2013,09,19,12,04,17.70
2013,09,19,12,05,17.70
2013,09,19,12,06,17.70
2013,09,19,12,07,17.80
2013,09,19,12,08,17.80
2013,09,19,12,09,17.80
2013,09,19,12,10,17.90
2013,09,19,12,11,17.90
2013,09,19,12,12,17.80
2013,09,19,12,13,17.80
2013,09,19,12,14,17.80
2013,09,19,12,15,17.80
2013,09,19,12,16,17.90
2013,09,19,12,17,18.00
2013,09,19,12,18,18.00
2013,09,19,12,19,18.10
2013,09,19,12,20,18.10
2013,09,19,12,21,18.10
2013,09,19,12,22,18.20
2013,09,19,12,23,18.20
2013,09,19,12,24,18.40
2013,09,19,12,25,18.50
2013,09,19,12,26,18.60
2013,09,19,12,27,18.70
2013,09,19,12,28,18.70
2013,09,19,12,29,18.70
2013,09,19,12,30,18.80
2013,09,19,12,31,18.90
2013,09,19,12,32,19.00
2013,09,19,12,33,19.20
2013,09,19,12,34,19.30
2013,09,19,12,35,19.30
2013,09,19,12,36,19.40
2013,09,19,12,37,19.40
2013,09,19,12,38,19.50
2013,09,19,12,39,19.60
2013,09,19,12,40,19.60
2013,09,19,12,41,19.80
2013,09,19,12,42,19.90
2013,09,19,12,43,20.00
2013,09,19,12,44,20.20
2013,09,19,12,45,20.30
2013,09,19,12,46,20.40
2013,09,19,12,47,20.50
2013,09,19,12,48,20.60
2013,09,19,12,49,20.70
2013,09,19,12,50,20.70
2013,09,19,12,51,20.80
2013,09,19,12,52,20.90
2013,09,19,12,53,20.90
2013,09,19,12,54,20.90
2013,09,19,12,55,20.90
2013,09,19,12,56,20.90
2013,09,19,12,57,20.90
2013,09,19,12,58,20.90
2013,09,19,12,59,20.90
2013,09,19,13,00,20.90
2013,09,19,13,01,21.00
2013,09,19,13,02,21.00
2013,09,19,13,03,21.00
2013,09,19,13,04,21.00
2013,09,19,13,05,21.10
2013,09,19,13,06,21.10
2013,09,19,13,07,21.10
2013,09,19,13,08,21.10
2013,09,19,13,09,21.10
2013,09,19,13,10,21.10
2013,09,19,13,11,21.10
2013,09,19,13,12,21.10
2013,09,19,13,13,21.20
2013,09,19,13,14,21.20
2013,09,19,13,15,21.20
2013,09,19,13,16,21.20
2013,09,19,13,17,21.20
2013,09,19,13,18,21.20
2013,09,19,13,19,21.20
2013,09,19,13,20,21.20
2013,09,19,13,21,21.30
2013,09,19,13,22,21.40
2013,09,19,13,23,21.50
2013,09,19,13,24,21.60
2013,09,19,13,25,21.70
2013,09,19,13,26,21.80
2013,09,19,13,27,21.90
2013,09,19,13,28,22.00
2013,09,19,13,29,22.10
2013,09,19,13,30,22.20
2013,09,19,13,31,22.20
2013,09,19,13,32,22.20
2013,09,19,13,33,22.30
2013,09,19,13,34,22.30
2013,09,19,13,35,22.20
2013,09,19,13,36,22.10
2013,09,19,13,37,22.00
2013,09,19,13,38,22.00
2013,09,19,13,39,21.90
2013,09,19,13,40,21.80
2013,09,19,13,41,21.80
2013,09,19,13,42,21.80
2013,09,19,13,43,21.80
2013,09,19,13,44,21.80
2013,09,19,13,45,21.80
2013,09,19,13,46,21.80
2013,09,19,13,47,21.80
2013,09,19,13,48,21.80
2013,09,19,13,49,21.80
2013,09,19,13,50,21.80
2013,09,19,13,51,21.80
2013,09,19,13,52,21.80
2013,09,19,13,53,21.80
2013,09,19,13,54,21.90
2013,09,19,13,55,22.00
2013,09,19,13,56,22.00
2013,09,19,13,57,22.00
2013,09,19,13,58,22.10
2013,09,19,13,59,22.20
2013,09,19,14,00,22.20
2013,09,19,14,01,22.30
2013,09,19,14,02,22.40
2013,09,19,14,03,22.40
2013,09,19,14,04,22.40
2013,09,19,14,05,22.40
2013,09,19,14,06,22.50
2013,09,19,14,07,22.50
2013,09,19,14,08,22.50
2013,09,19,14,09,22.50
2013,09,19,14,10,22.50
2013,09,19,14,11,22.50
2013,09,19,14,12,22.60
2013,09,19,14,13,22.60
2013,09,19,14,14,22.70
2013,09,19,14,15,22.80
2013,09,19,14,16,22.80
2013,09,19,14,17,22.80
2013,09,19,14,18,22.70
2013,09,19,14,19,22.70
2013,09,19,14,20,22.70
2013,09,19,14,21,22.70
2013,09,19,14,22,22.70
2013,09,19,14,23,22.60
2013,09,19,14,24,22.60
2013,09,19,14,25,22.60
2013,09,19,14,26,22.70
2013,09,19,14,27,22.70
2013,09,19,14,28,22.70
2013,09,19,14,29,22.70
2013,09,19,14,30,22.80
2013,09,19,14,31,22.80
2013,09,19,14,32,22.80
2013,09,19,14,33,22.90
2013,09,19,14,34,22.90
2013,09,19,14,35,23.00
2013,09,19,14,36,23.10
2013,09,19,14,37,23.20
2013,09,19,14,38,23.20
2013,09,19,14,39,23.20
2013,09,19,14,40,23.20
2013,09,19,14,41,23.20
2013,09,19,14,42,23.30
2013,09,19,14,43,23.30
2013,09,19,14,44,23.30
2013,09,19,14,45,23.30
2013,09,19,14,46,23.30
2013,09,19,14,47,23.30
2013,09,19,14,48,23.40
2013,09,19,14,49,23.50
2013,09,19,14,50,23.50
2013,09,19,14,51,23.60
2013,09,19,14,52,23.60
2013,09,19,14,53,23.70
2013,09,19,14,54,23.70
2013,09,19,14,55,23.70
2013,09,19,14,56,23.70
2013,09,19,14,57,24.00
2013,09,19,14,58,24.10
2013,09,19,14,59,24.10
2013,09,19,15,00,24.10
2013,09,19,15,01,24.10
2013,09,19,15,02,24.10
2013,09,19,15,03,24.00
2013,09,19,15,04,24.00
2013,09,19,15,05,23.90
2013,09,19,15,06,23.90
2013,09,19,15,07,23.90
2013,09,19,15,08,23.90
2013,09,19,15,09,23.80
2013,09,19,15,10,23.80
2013,09,19,15,11,23.80
2013,09,19,15,12,23.80
2013,09,19,15,13,23.70
2013,09,19,15,14,23.70
2013,09,19,15,15,23.80
2013,09,19,15,16,23.80
2013,09,19,15,17,23.80
2013,09,19,15,18,23.80
2013,09,19,15,19,23.70
2013,09,19,15,20,23.60
2013,09,19,15,21,23.60
2013,09,19,15,22,23.60
2013,09,19,15,23,23.50
2013,09,19,15,24,23.50
2013,09,19,15,25,23.50
2013,09,19,15,26,23.50
2013,09,19,15,27,23.50
2013,09,19,15,28,23.50
2013,09,19,15,29,23.40
2013,09,19,15,30,23.40
2013,09,19,15,31,23.40
2013,09,19,15,32,23.40
2013,09,19,15,33,23.40
2013,09,19,15,34,23.40
2013,09,19,15,35,23.30
2013,09,19,15,36,23.30
2013,09,19,15,37,23.30
2013,09,19,15,38,23.30
2013,09,19,15,39,23.30
2013,09,19,15,40,23.20
2013,09,19,15,41,23.20
2013,09,19,15,42,23.20
2013,09,19,15,43,23.20
2013,09,19,15,44,23.20
2013,09,19,15,45,23.20
2013,09,19,15,46,23.20
2013,09,19,15,47,23.20
2013,09,19,15,48,23.10
2013,09,19,15,49,23.10
2013,09,19,15,50,23.10
2013,09,19,15,51,23.10
2013,09,19,15,52,23.10
2013,09,19,15,53,23.10
2013,09,19,15,54,23.10
2013,09,19,15,55,23.10
2013,09,19,15,56,23.10
2013,09,19,15,57,23.10
2013,09,19,15,58,23.00
2013,09,19,15,59,23.00
2013,09,19,16,00,23.00
2013,09,19,16,01,23.00
2013,09,19,16,02,23.00
2013,09,19,16,03,23.00
2013,09,19,16,04,23.00
2013,09,19,16,05,23.00
2013,09,19,16,06,23.00
2013,09,19,16,07,23.10
2013,09,19,16,08,23.20
2013,09,19,16,09,23.20
2013,09,19,16,10,23.20
2013,09,19,16,11,23.10
2013,09,19,16,12,23.10
2013,09,19,16,13,23.10
2013,09,19,16,14,23.10
2013,09,19,16,15,23.10
2013,09,19,16,16,23.10
2013,09,19,16,17,23.10
2013,09,19,16,18,23.10
2013,09,19,16,19,23.10
2013,09,19,16,20,23.10
2013,09,19,16,21,23.10
2013,09,19,16,22,23.10
2013,09,19,16,23,23.10
2013,09,19,16,24,23.10
2013,09,19,16,25,23.10
2013,09,19,16,26,23.10
2013,09,19,16,27,23.10
2013,09,19,16,28,23.10
2013,09,19,16,29,23.10
2013,09,19,16,30,23.10
2013,09,19,16,31,23.10
2013,09,19,16,32,23.10
2013,09,19,16,33,23.10
2013,09,19,16,34,23.10
2013,09,19,16,35,23.10
2013,09,19,16,36,23.10
2013,09,19,16,37,23.10
2013,09,19,16,38,23.10
2013,09,19,16,39,23.10
2013,09,19,16,40,23.10
2013,09,19,16,41,23.10
2013,09,19,16,42,23.10
2013,09,19,16,43,23.20
2013,09,19,16,44,23.20
2013,09,19,16,45,23.30
2013,09,19,16,46,23.30
2013,09,19,16,47,23.30
2013,09,19,16,48,23.30
2013,09,19,16,49,23.30
2013,09,19,16,50,23.30
2013,09,19,16,51,23.30
2013,09,19,16,52,23.30
2013,09,19,16,53,23.30
2013,09,19,16,54,23.30
2013,09,19,16,55,23.20
2013,09,19,16,56,23.20
2013,09,19,16,57,23.10
2013,09,19,16,58,23.10
2013,09,19,16,59,23.10
2013,09,19,17,00,23.10
2013,09,19,17,01,23.00
2013,09,19,17,02,23.00
2013,09,19,17,03,23.00
2013,09,19,17,04,22.90
2013,09,19,17,05,22.90
2013,09,19,17,06,22.80
2013,09,19,17,07,22.80
2013,09,19,17,08,22.80
2013,09,19,17,09,22.80
2013,09,19,17,10,22.80
2013,09,19,17,11,22.80
2013,09,19,17,12,22.80
2013,09,19,17,13,22.70
2013,09,19,17,14,22.70
2013,09,19,17,15,22.60
2013,09,19,17,16,22.60
2013,09,19,17,17,22.50
2013,09,19,17,18,22.40
2013,09,19,17,19,22.40